Weather History for Covington, KY

Change the Weather History Date:

Thursday, August 22, 2013

  Actual Average Record
Temperature  
Mean Temperature 78 °F 75 °F  
Max Temperature 88 °F 85 °F 103 °F (1936)
Min Temperature 67 °F 64 °F 48 °F (1950)
Degree Days  
Heating Degree Days 0 0  
Month to date heating degree days 2 0  
Since 1 June heating degree days 5 15  
Since 1 July heating degree days 4 0  
Cooling Degree Days 13 10  
Month to date cooling degree days 177 229  
Year to date cooling degree days 859 888  
Since 1 June cooling degree days 720 794  
Growing Degree Days 28 (Base 50)    
Moisture  
Dew Point 70 °F    
Average Humidity 76    
Maximum Humidity 100    
Minimum Humidity 51    
Precipitation  
Precipitation 0.09 in 0.11 in 1.41 in (1971)
Month to date precipitation 2.11 2.51  
Year to date precipitation 31.47 28.89  
Snow  
Snow 0.00 in 0.00 in 0.00 in ()
Month to date snowfall 0.0 0.0  
Since 1 June snowfall 0.0 0.0  
Since 1 July snowfall 0.0 0.0  
Snow Depth 0.00 in    
Sea Level Pressure  
Sea Level Pressure 30.07 in    
Wind  
Wind Speed 5 mph (WNW)    
Max Wind Speed 24 mph    
Max Gust Speed 30 mph    
Visibility 8 miles    
Events Rain , Thunderstorm    
T = Trace of Precipitation, MM = Missing Value Source: NWS Daily Summary

Daily Weather History Graph

Daily Weather History Graph

Search for Another Location

Airport:

Trip Planner

Search our weather history database for the weather conditions in past years. The results will help you decide how hot, cold, wet, or windy it might be!

Date:

Astronomy

Aug. 22, 2013 Rise Set
Actual Time 6:58 AM EDT 8:23 PM EDT
Civil Twilight 6:30 AM EDT 8:51 PM EDT
Nautical Twilight 5:56 AM EDT 9:25 PM EDT
Astronomical Twilight 5:21 AM EDT 10:00 PM EDT
Moon 9:08 PM EDT (8/22) 8:45 AM EDT (8/22)
Length of Visible Light 14h 20m
Length of Day
13h 25m
Waning Gibbous, 97% of the Moon is Illuminated
Aug 22
Waning Gibbous
Aug 28
Last Quarter
Sep 5
New
Sep 12
First Quarter
Sep 19
Full

Hourly Weather History & Observations

Time (EDT) Temp. Heat Index Dew Point Humidity Pressure Visibility Wind Dir Wind Speed Gust Speed Precip Events Conditions
12:52 AM 70.0 °F - 66.9 °F 90% 30.11 in 10.0 mi SSW 6.9 mph - N/A   Partly Cloudy
1:52 AM 70.0 °F - 66.9 °F 90% 30.09 in 10.0 mi South 8.1 mph - N/A   Scattered Clouds
2:52 AM 69.1 °F - 66.0 °F 90% 30.10 in 10.0 mi Calm Calm - N/A   Overcast
3:52 AM 69.1 °F - 66.9 °F 93% 30.09 in 10.0 mi WSW 3.5 mph - N/A   Mostly Cloudy
4:52 AM 68.0 °F - 68.0 °F 100% 30.07 in 9.0 mi Calm Calm - N/A   Mostly Cloudy
5:52 AM 69.1 °F - 68.0 °F 96% 30.08 in 8.0 mi WSW 3.5 mph - N/A   Overcast
6:52 AM 68.0 °F - 68.0 °F 100% 30.10 in 6.0 mi Calm Calm - N/A   Mostly Cloudy
7:52 AM 68.0 °F - 68.0 °F 100% 30.10 in 7.0 mi SW 3.5 mph - N/A   Mostly Cloudy
8:52 AM 73.0 °F - 69.1 °F 87% 30.09 in 9.0 mi SW 5.8 mph - N/A   Mostly Cloudy
9:52 AM 75.9 °F - 70.0 °F 82% 30.10 in 10.0 mi Calm Calm - N/A   Mostly Cloudy
10:52 AM 79.0 °F - 70.0 °F 74% 30.11 in 10.0 mi West 6.9 mph - N/A   Mostly Cloudy
11:52 AM 82.0 °F 86.3 °F 71.1 °F 69% 30.11 in 10.0 mi West 9.2 mph - N/A   Scattered Clouds
12:52 PM 84.9 °F 89.4 °F 70.0 °F 61% 30.09 in 10.0 mi West 10.4 mph - N/A   Mostly Cloudy
1:52 PM 86.0 °F 89.4 °F 68.0 °F 55% 30.08 in 10.0 mi West 9.2 mph - 0.00 in   Mostly Cloudy
3:52 PM 86.0 °F 88.2 °F 66.0 °F 51% 30.04 in 10.0 mi NNW 11.5 mph 17.3 mph N/A   Mostly Cloudy
4:52 PM 86.0 °F 88.2 °F 66.0 °F 51% 30.04 in 10.0 mi NNW 8.1 mph - N/A   Mostly Cloudy
5:29 PM 80.6 °F 83.9 °F 69.8 °F 70% 30.07 in 10.0 mi NW 23.0 mph 29.9 mph N/A Thunderstorm Thunderstorm
5:52 PM 75.0 °F - 73.0 °F 94% 30.05 in 4.0 mi North 11.5 mph 27.6 mph 0.07 in Rain , Thunderstorm Thunderstorms and Rain
5:57 PM 73.4 °F - 73.4 °F 100% 30.07 in 4.0 mi North 11.5 mph - 0.00 in Rain , Thunderstorm Thunderstorms and Rain
6:10 PM 73.4 °F - 73.4 °F 100% 30.07 in 4.0 mi NNW 6.9 mph - 0.02 in Rain Light Rain
6:52 PM 77.0 °F - 73.9 °F 90% 30.04 in 9.0 mi North 3.5 mph - 0.02 in   Mostly Cloudy
7:52 PM 75.0 °F - 73.0 °F 94% 30.04 in 8.0 mi NW 3.5 mph - N/A   Mostly Cloudy
8:52 PM 73.9 °F - 72.0 °F 93% 30.03 in 8.0 mi Calm Calm - N/A   Mostly Cloudy
9:52 PM 73.9 °F - 71.1 °F 91% 30.03 in 9.0 mi NNW 4.6 mph - N/A   Mostly Cloudy
10:52 PM 72.0 °F - 70.0 °F 93% 30.04 in 8.0 mi NW 3.5 mph - N/A   Scattered Clouds
11:52 PM 71.1 °F - 70.0 °F 96% 30.05 in 5.0 mi North 3.5 mph - N/A   Scattered Clouds